Балыкчи

Узбекистан     40˚54′16″N   71˚50′55″E
темп.,
°C
ветер,
м/с
пор.,
м/с
влажн.,
%
обл.,
%
осадки,
мм/ч
давл.,
гПа
погр.,
м
6 декабря, вс
вс623:00+2˚с3556100 0.0 1032124
02:00+2˚с2253100 0.0 103255
05:00+1˚с1253100 0.0 103230
08:00+1˚ссв125294 0.0 103337
11:00+5˚св124061 0.0 1031441
14:00+7˚юв11370 0.0 1029742
17:00+5˚юв115113 0.0 103022
20:00+3˚ссв225991 0.0 103029
7 декабря, пн
пн723:00+2˚св226196 0.0 102927
02:00+1˚св116499 0.0 102824
05:00+1˚св1261100 0.0 102624
08:00+1˚св1159100 0.0 102726
11:00+4˚в1148100 0.0 1026270
14:00+6˚ю1142100 0.0 1025568
17:00+4˚всв0051100 0.0 102722
20:00+4˚зсз115598 0.0 102924
8 декабря, вт
вт823:00+3˚зсз126099 0.0 102948
02:00+2˚зюз1267100 0.0 1030116
05:00+1˚ю1282100 0.0 1029166
08:00+1˚ю0090100 0.0 1029138
11:00+2˚ююз1189100 0.2 1028260
14:00+3˚ю3384100 0.1 1027376
17:00+2˚ю2393100 0.2 1029210
20:00+1˚ю1296100 0.1 1031128
9 декабря, ср
ср923:00+2˚ю1296100 0.3 1032135
02:00+1˚ю2296100 0.3 1034159
05:00ююв2297100 1.3 1034118
08:00юв2297100 1.1 1035128
11:00+1˚юв0195100 1.6 1034156
14:00+3˚ююз117587 0.0 1033510
17:00+2˚ююз128552 0.0 103430
20:00зюз01900 0.0 103321
10 декабря, чт
чт1023:00всв01920 0.0 103221
02:00−1˚всв11945 0.0 103221
05:00−1˚св129417 0.0 103125
08:00−1˚всв228523 0.0 103236
11:00+3˚в125647 0.0 1031410
14:00+4˚вюв114930 0.0 1030551
17:00+2˚в016318 0.0 103122
20:00+1˚св226563 0.0 103224